Change the Weather History Date:

Sunday, October 7, 2012

  Actual Average (KBIS) Record (KBIS)
Temperature  
Mean Temperature 42 °F 49 °F  
Max Temperature 55 °F 62 °F 91 °F (1920)
Min Temperature 28 °F 36 °F 15 °F (1976)
Degree Days  
Heating Degree Days 24 16  
Month to date heating degree days 104  
Since 1 July heating degree days 390  
Cooling Degree Days 0 0  
Month to date cooling degree days 0  
Year to date cooling degree days 519  
Moisture  
Dew Point 26 °F    
Average Humidity 59    
Maximum Humidity 100    
Minimum Humidity 35    
Precipitation  
Precipitation 0.00 in 0.04 in 0.92 in (1977)
Month to date precipitation 0.31  
Year to date precipitation 15.71  
Snow  
Snow 0.00 in 0.00 in 4.90 in (1946)
Month to date snowfall 0.1  
Since 1 July snowfall 0.3  
Since 1 September snowfall 0.3  
Snow Depth -    
Sea Level Pressure  
Sea Level Pressure 29.92 in    
Wind  
Wind Speed 9 mph (West)    
Max Wind Speed 20 mph    
Max Gust Speed 25 mph    
Visibility 10 miles    
Events Rain    
T = Trace of Precipitation, MM = Missing Value Source: NWS Daily Summary

Daily Weather History Graph

Daily Weather History Graph

Search for Another Location

Airport or City:

Trip Planner

Search our weather history database for the weather conditions in past years. The results will help you decide how hot, cold, wet, or windy it might be!

Date:

Astronomy

Oct. 07, 2012 Rise Set
Actual Time 7:51 AM CDT 7:10 PM CDT
Civil Twilight 7:20 AM CDT 7:40 PM CDT
Nautical Twilight 6:45 AM CDT 8:15 PM CDT
Astronomical Twilight 6:10 AM CDT 8:51 PM CDT
Moon No Moon Rise 2:44 PM CDT (10/7)
Length of Visible Light 12h 20m
Length of Day
11h 19m
Waning Gibbous, 56% of the Moon is Illuminated
Oct 7
Waning Gibbous
Oct 8
Last Quarter
Oct 15
New
Oct 21
First Quarter
Oct 29
Full

Hourly Weather History & Observations

Time (CDT) Temp. Windchill Dew Point Humidity Pressure Visibility Wind Dir Wind Speed Gust Speed Precip Events Conditions
12:15 AM 32.0 °F 24.2 °F 14.0 °F 48% 30.14 in 10.0 mi SW 9.2 mph - N/A   Clear
12:35 AM 30.2 °F 21.9 °F 15.8 °F 55% 30.13 in 10.0 mi SW 9.2 mph - N/A   Clear
12:55 AM 30.2 °F 22.6 °F 15.8 °F 55% 30.12 in 10.0 mi SW 8.1 mph - N/A   Clear
1:15 AM 28.4 °F 19.7 °F 15.8 °F 59% 30.12 in 10.0 mi SW 9.2 mph - N/A   Clear
1:35 AM 28.4 °F 19.1 °F 15.8 °F 59% 30.11 in 10.0 mi SW 10.4 mph - N/A   Clear
1:55 AM 28.4 °F 19.1 °F 15.8 °F 59% 30.10 in 10.0 mi SW 10.4 mph - N/A   Clear
2:15 AM 28.4 °F 19.7 °F 15.8 °F 59% 30.10 in 10.0 mi SW 9.2 mph - N/A   Clear
2:35 AM 28.4 °F 19.7 °F 15.8 °F 59% 30.09 in 10.0 mi SW 9.2 mph - N/A   Clear
2:55 AM 28.4 °F 19.7 °F 15.8 °F 59% 30.08 in 10.0 mi SW 9.2 mph - N/A   Clear
3:15 AM 28.4 °F 19.1 °F 17.6 °F 64% 30.07 in 10.0 mi SW 10.4 mph - N/A   Clear
3:55 AM 28.4 °F 19.1 °F 17.6 °F 64% 30.05 in 10.0 mi SW 10.4 mph - N/A   Clear
4:15 AM 28.4 °F 19.1 °F 15.8 °F 59% 30.04 in 10.0 mi SW 10.4 mph - N/A   Clear
4:35 AM 28.4 °F 19.1 °F 17.6 °F 64% 30.03 in 10.0 mi SW 10.4 mph - N/A   Clear
4:55 AM 28.4 °F 19.1 °F 17.6 °F 64% 30.02 in 10.0 mi SW 10.4 mph - N/A   Clear
5:15 AM 28.4 °F 18.5 °F 17.6 °F 64% 30.01 in 10.0 mi SW 11.5 mph - N/A   Clear
5:35 AM 28.4 °F 19.1 °F 17.6 °F 64% 30.00 in 10.0 mi SW 10.4 mph - N/A   Clear
5:55 AM 28.4 °F 19.7 °F 19.4 °F 69% 29.99 in 10.0 mi SW 9.2 mph - N/A   Clear
6:15 AM 28.4 °F 18.5 °F 19.4 °F 69% 29.98 in 10.0 mi SW 11.5 mph - N/A   Clear
6:35 AM 28.4 °F 19.1 °F 19.4 °F 69% 29.99 in 10.0 mi West 10.4 mph - N/A   Partly Cloudy
6:55 AM 28.4 °F 19.7 °F 21.2 °F 74% 29.98 in 10.0 mi WSW 9.2 mph - N/A   Mostly Cloudy
7:15 AM 28.4 °F 19.1 °F 21.2 °F 74% 29.97 in 10.0 mi WSW 10.4 mph - N/A   Mostly Cloudy
7:35 AM 28.4 °F 19.7 °F 21.2 °F 74% 29.96 in 10.0 mi SW 9.2 mph - N/A   Mostly Cloudy
7:55 AM 28.4 °F 21.2 °F 21.2 °F 74% 29.96 in 10.0 mi SW 6.9 mph - N/A   Overcast
8:15 AM 28.4 °F 20.4 °F 23.0 °F 80% 29.96 in 10.0 mi SW 8.1 mph - N/A   Overcast
8:35 AM 30.2 °F 21.9 °F 23.0 °F 75% 29.95 in 10.0 mi WSW 9.2 mph - N/A   Overcast
8:55 AM 32.0 °F 25.6 °F 24.8 °F 75% 29.95 in 10.0 mi WSW 6.9 mph - N/A   Overcast
9:15 AM 32.0 °F 24.8 °F 24.8 °F 75% 29.95 in 10.0 mi WSW 8.1 mph - N/A   Overcast
9:35 AM 32.0 °F 26.4 °F 24.8 °F 75% 29.95 in 10.0 mi WSW 5.8 mph - N/A   Overcast
9:55 AM 33.8 °F 27.7 °F 24.8 °F 70% 29.95 in 10.0 mi WSW 6.9 mph - N/A   Mostly Cloudy
10:15 AM 37.4 °F 30.3 °F 24.8 °F 60% 29.95 in 10.0 mi West 10.4 mph - N/A   Partly Cloudy
10:35 AM 41.0 °F 33.9 °F 24.8 °F 53% 29.94 in 10.0 mi West 12.7 mph - N/A   Partly Cloudy
10:55 AM 41.0 °F 34.7 °F 24.8 °F 53% 29.94 in 10.0 mi West 10.4 mph - N/A   Mostly Cloudy
11:15 AM 41.0 °F 35.8 °F 24.8 °F 53% 29.94 in 10.0 mi West 8.1 mph - N/A   Overcast
11:35 AM 42.8 °F 37.5 °F 26.6 °F 53% 29.93 in 10.0 mi West 9.2 mph - N/A   Overcast
11:55 AM 46.4 °F 41.5 °F 26.6 °F 46% 29.93 in 10.0 mi WNW 10.4 mph - N/A   Overcast
12:15 PM 46.4 °F 41.9 °F 26.6 °F 46% 29.92 in 10.0 mi WNW 9.2 mph - N/A   Overcast
12:35 PM 50.0 °F - 26.6 °F 40% 29.92 in 10.0 mi WNW 11.5 mph - N/A   Overcast
12:55 PM 50.0 °F - 26.6 °F 40% 29.91 in 10.0 mi West 9.2 mph - N/A   Scattered Clouds
1:15 PM 51.8 °F - 26.6 °F 38% 29.91 in 10.0 mi NW 9.2 mph - N/A   Clear
1:35 PM 51.8 °F - 26.6 °F 38% 29.90 in 10.0 mi West 9.2 mph 17.3 mph N/A   Clear
1:55 PM 53.6 °F - 26.6 °F 35% 29.89 in 10.0 mi WNW 11.5 mph 19.6 mph N/A   Scattered Clouds
2:15 PM 55.4 °F - 28.4 °F 36% 29.88 in 10.0 mi WNW 12.7 mph - N/A   Partly Cloudy
2:35 PM 53.6 °F - 28.4 °F 38% 29.87 in 10.0 mi WNW 10.4 mph 19.6 mph N/A   Partly Cloudy
2:55 PM 55.4 °F - 28.4 °F 36% 29.86 in 10.0 mi NNW 10.4 mph 17.3 mph N/A   Scattered Clouds
3:15 PM 55.4 °F - 28.4 °F 36% 29.86 in 10.0 mi WNW 12.7 mph 17.3 mph N/A   Mostly Cloudy
3:35 PM 55.4 °F - 28.4 °F 36% 29.85 in 10.0 mi WNW 11.5 mph - N/A   Scattered Clouds
3:55 PM 55.4 °F - 28.4 °F 36% 29.85 in 10.0 mi NW 10.4 mph - N/A   Scattered Clouds
4:15 PM 53.6 °F - 30.2 °F 41% 29.84 in 10.0 mi WNW 10.4 mph - N/A   Scattered Clouds
4:35 PM 55.4 °F - 30.2 °F 38% 29.84 in 10.0 mi WNW 11.5 mph 20.7 mph N/A   Mostly Cloudy
4:55 PM 55.4 °F - 28.4 °F 36% 29.83 in 10.0 mi WNW 12.7 mph 19.6 mph N/A   Partly Cloudy
5:15 PM 55.4 °F - 28.4 °F 36% 29.83 in 10.0 mi WNW 12.7 mph - N/A   Partly Cloudy
5:35 PM 55.4 °F - 28.4 °F 36% 29.82 in 10.0 mi WNW 15.0 mph - N/A   Clear
5:55 PM 55.4 °F - 28.4 °F 36% 29.82 in 10.0 mi WNW 9.2 mph - N/A   Clear
6:15 PM 53.6 °F - 28.4 °F 38% 29.82 in 10.0 mi WNW 9.2 mph - N/A   Scattered Clouds
6:35 PM 51.8 °F - 28.4 °F 41% 29.82 in 10.0 mi WNW 8.1 mph - N/A   Mostly Cloudy
6:55 PM 51.8 °F - 28.4 °F 41% 29.82 in 10.0 mi WNW 6.9 mph - N/A   Mostly Cloudy
7:15 PM 50.0 °F - 30.2 °F 47% 29.81 in 10.0 mi WNW 5.8 mph - N/A   Overcast
7:35 PM 48.2 °F - 32.0 °F 54% 29.83 in 10.0 mi WNW 19.6 mph 25.3 mph N/A   Mostly Cloudy
7:55 PM 48.2 °F - 35.6 °F 62% 29.82 in 10.0 mi NNW 11.5 mph - N/A   Mostly Cloudy
8:15 PM 48.2 °F - 33.8 °F 58% 29.83 in 10.0 mi NW 10.4 mph - N/A   Overcast
8:35 PM 48.2 °F - 35.6 °F 62% 29.82 in 10.0 mi NW 5.8 mph - N/A   Overcast
8:55 PM 46.4 °F 43.5 °F 35.6 °F 66% 29.82 in 10.0 mi NW 5.8 mph - N/A   Overcast
9:15 PM 46.4 °F 42.9 °F 37.4 °F 71% 29.83 in 10.0 mi West 6.9 mph - N/A Rain Light Rain
9:35 PM 44.6 °F 40.7 °F 39.2 °F 81% 29.82 in 10.0 mi NW 6.9 mph - N/A Rain Light Rain
9:55 PM 44.6 °F 41.4 °F 41.0 °F 87% 29.82 in 10.0 mi WNW 5.8 mph - N/A   Overcast
10:15 PM 44.6 °F 42.2 °F 41.0 °F 87% 29.81 in 10.0 mi WSW 4.6 mph - N/A Rain Light Rain
10:35 PM 44.6 °F 43.1 °F 41.0 °F 87% 29.80 in 10.0 mi WSW 3.5 mph - N/A Rain Light Rain
10:55 PM 44.6 °F 42.2 °F 41.0 °F 87% 29.79 in 10.0 mi SSW 4.6 mph - N/A   Overcast
11:15 PM 42.8 °F 38.0 °F 41.0 °F 93% 29.77 in 10.0 mi SSE 8.1 mph - N/A   Overcast
11:35 PM 41.0 °F 35.8 °F 41.0 °F 100% 29.76 in 10.0 mi South 8.1 mph - N/A   Overcast
11:55 PM 41.0 °F 35.2 °F 41.0 °F 100% 29.74 in 10.0 mi South 9.2 mph - N/A   Overcast